Regional Weather Roundup
Issued by NWS

Home | Current Version | Previous Version | Graphics & Text | Print | Product List | Glossary On
Versions: 1 2 3 4 5 6 7 8 9 10 11 12 13 14 15 16 17 18 19 20 21 22 23 24 25 26 27 28 29 30 31 32 33 34 35 36 37 38 39 40 41 42 43 44 45 46 47 48 49 50
320
ASUS45 KBOU 272307
RWRCO

WEATHER ROUNDUP FOR COLORADO
NATIONAL WEATHER SERVICE DENVER/BOULDER CO
500 PM MDT TUE JUN 27 2017

NOTE: "FAIR" INDICATES FEW OR NO CLOUDS BELOW 12000 FEET WITH NO
SIGNIFICANT WEATHER AND/OR OBSTRUCTIONS TO VISIBILITY.

COZ001>005-013-030-031-280000-
...NORTHWEST COLORADO...

CITY           SKY/WX    TMP DP  RH WIND       PRES   REMARKS
CRAIG          FAIR      84  36  18 N14G24    29.95S
HAYDEN         FAIR      81  34  18 NW14G21   29.98R
MEEKER         FAIR      86  18   8 W16       29.95F
RABBIT EARS PA MOCLDY    63  28  27 W10G20    30.29F
STEAMBOAT SPGS FAIR      80  35  19 W18G30    29.98F
WALDEN         FAIR      75  23  14 W15G23    30.10S
$$

COZ006>008-011-280000-
...WEST CENTRAL VALLEYS...

CITY           SKY/WX    TMP DP  RH WIND       PRES   REMARKS
GRAND JUNCTION FAIR      97  14   5 SW17G23   29.84F
MONTROSE       FAIR      91  20   7 W16G23    29.95F
EAGLE          MOSUNNY   88  21   8 W16G29    29.99F
RIFLE          FAIR      93   7   4 W18G28    29.88F
DELTA          FAIR      97  22   6 SW20      29.88F
NUCLA          FAIR      93  16   6 SW15G24   30.00F
$$

COZ017>023-064>068-280000-
...SOUTHWEST COLORADO...

CITY           SKY/WX    TMP DP  RH WIND       PRES   REMARKS
DURANGO        FAIR      88  18   7 W17G28    30.05F
CORTEZ         FAIR      92  13   5 W17G25    29.98F
PAGOSA SPRINGS FAIR      84  17   8 SW15G24   30.15F
TELLURIDE      FAIR      76  22  13 SW14G21   30.27F
WOLF CREEK PAS FAIR      59  27  29 SW22G36   30.51F
$$

COZ009-010-012-014-032>034-037-058>063-280000-
...CENTRAL COLORADO...

CITY           SKY/WX    TMP DP  RH WIND       PRES   REMARKS
ASPEN          FAIR      80  19  10 W8G22     30.10F
BUENA VISTA    FAIR      83  19   9 W21G31    30.09S
COPPER MTN     PTSUNNY   64  14  14 W20G30    30.44R
BERTHOUD PASS  PTSUNNY   54  39  58 W29       30.45S
COTTONWOOD PAS FAIR      79   9   7 NW6G22    30.24F
GUNNISON       FAIR      80  29  15 W18G29    30.10F
KREMMLING      FAIR      88   7   5 W17G25    30.03F
LEADVILLE      FAIR      70  12  10 W16G29    30.25F
MONARCH PASS   FAIR      63  23  22 W36G52    30.51F
SALIDA         FAIR      87  21   9 W20G33    30.12S
SUNLIGHT       FAIR      70  19  14 SW10G26   30.36S
WILKERSON PASS PTSUNNY   64  14  14 W10G22    30.37S
$$

COZ069>075-280000-
...SAN LUIS VALLEY/SANGRE DE CRISTO MOUNTAINS...

CITY           SKY/WX    TMP DP  RH WIND       PRES   REMARKS
ALAMOSA        FAIR      85  26  11 W21G30    30.08F
DEL NORTE      FAIR      82  29  15 SW22G31   30.11F
LA VETA PASS   FAIR      72  30  21 MISG      30.38F
SAGUACHE       FAIR      82  32  16 W14G20    30.10F
$$

COZ035-036-038>040-280000-
...NORTHERN COLORADO FRONT RANGE...

CITY           SKY/WX    TMP DP  RH WIND       PRES   REMARKS
DENVER INTL AP PTSUNNY   92  29  10 CALM      29.79F
DMNS CITY PARK   N/A     89  36  15 E2        29.78F
AURORA         PTSUNNY   90  29  11 S5G18     29.81F
FRONT RANGE AP PTSUNNY   93  30  10 W7        29.84R
ERIE MUNI ARPT FAIR      94  22   7 W24G30    29.76F
BOULDER MUN AP FAIR      95  28   9 W18G31    29.78F
CENTENNIAL     PTSUNNY   92  27   9 E7        29.82F
BROOMFIELD     FAIR      95  28   9 W24G37    29.81F
FORT COLLINS   FAIR      93  32  11 NW23G29   29.77F
LONGMONT       FAIR      97  24   7 W22G29    29.78S
$$

COZ041-046-047-076>085-087-088-280000-
...PIKES PEAK/PALMER DIVIDE AND SOUTHERN FOOTHILLS...

CITY           SKY/WX    TMP DP  RH WIND       PRES   REMARKS
COLO. SPRINGS  PTSUNNY   89  32  13 SW20      29.87F
A. F. ACADEMY  FAIR      90  29  11 S10G25    29.89F
SCHRIEVER AFB  FAIR      87  32  14 S12G37    29.89F
CHEYENNE MTN   PTSUNNY   82  34  17 S5        29.90S
ELLICOTT       FAIR     N/A N/A N/A SW22G32   29.87F
FALCON           N/A     90  27  10 SW14G26   29.94F
FORT CARSON    FAIR      93  32  11 SW15G30   29.83F
LIMON          FAIR      89  38  16 S16G28    29.83F
MONUMENT HILL  FAIR      81  30  16 W8G16     29.95F
CANON CITY     SUNNY     97  34  11 SW22G32   29.82F
WALSENBURG     FAIR      88  32  13 W9        29.90F
TRINIDAD       FAIR      89  41  18 SE6       29.90F
$$

COZ042>045-048>051-090-091-280000-
...NORTHEAST COLORADO...

CITY           SKY/WX    TMP DP  RH WIND       PRES   REMARKS
GREELEY ARPT   FAIR      94  41  16 NW16      29.73F
AKRON          LGT RAIN  85  41  21 S35G44    29.75F
BURLINGTON     FAIR      90  45  21 S12G17    29.77F
WRAY           FAIR      88  45  22 S14       29.70S
YUMA           FAIR      88  37  16 S15G46    29.74S
STERLING       FAIR      91  43  18 W9        29.65F
HOLYOKE        NOT AVBL
FORT MORGAN    FAIR      88  34  14 S20       29.76R
$$

COZ086-089-092>099-280000-
...SOUTHEAST COLORADO...

CITY           SKY/WX    TMP DP  RH WIND       PRES   REMARKS
PUEBLO         FAIR      98  38  12 W16       29.76F
LA JUNTA       FAIR      96  41  15 S12       29.76F
LAMAR          FAIR      93  44  18 SW20G31   29.72S
SPRINGFIELD      N/A     88  48  25 S26G33    29.84F
$$




USA.gov is the U.S. government's official web portal to all federal, state and local government web resources and services.